OBJECT D, 43834

Orbit data source: Space-Track

You're viewing an Uncataloged Satellite

Recently launched and/or uncataloged satellites may have evolving metadata. Metadata may include but not limited to: Owner, Maufacturer, Bus, Motor, and Mission.

OBJECT D, 43834 is a satellite in SSO that was launched on Fri, 07 Dec 2018 UTC via a CHANG ZHENG 2D launch vehicle from the Jiuquan Satellite Launch Center, China (JSC). Unknown objects in Earth's orbit typically refer to objects detected orbiting the Earth but have not yet been identified or cataloged. These objects could be anything from previously untracked satellites, spent rocket stages, debris from satellite collisions, or even natural meteoroids temporarily captured by Earth's gravity.

Loading next visibility...
Identifier
43834, 2018-102D
Orbit
SSO
Country
Flag of TBDTBD
Related business
None
Manufacturer
Unknown
Mission
Commercial Technology
Bus & Motor
Unknown
Mass
Unknown
Launch date (UTC)
2018-12-07 (7 years ago)
Launch vehicle
CHANG ZHENG 2D
Launch site
Jiuquan Satellite Launch Center, China (JSC)
Object type
Unknown
Shape & HBR
Box, 0.1 m
Radar Cross Section
0.080 m², Medium (>0.1 m² and < 1m²)

Expand to show TLE details & history
Last TLE update: 8 hours ago

TLE from 8 hours ago
0 OBJECT D
1 43834U 18102D   25354.21747782  .00022988  00000-0  42012-3 0  9992
2 43834  97.3630  72.7912 0006130  12.5886 347.5517 15.49374648389395
Epoch: 2025-12-20T05:13Z
TLE epoch observation values (Epoch: 2025-12-20T05:13:10.083Z)
Latitude
-0.00004°
Longitude
-94.54825°
Altitude
417.616 km
Speed
7.663 km/s
True Right ascension
04h 51m 09s
True Declination
0° 00' 00"
Sunlit
Object was in full shadow at epoch
Visualization orbit readout
Latitude
Unknown
Longitude
Unknown
Altitude
Unknown
Speed
Unknown
Apparent Right ascension
Unknown
Apparent Declination
Unknown
Sunlit
N/A
Visualization observer readout
Local Sidereal Time
11:51:18
Azimuth
Unknown
Elevation
Unknown
Doppler factor
Unknown
Orbital elements
Apogee altitude
419.644 km
Perigee altitude
411.315 km
Semi-major axis
6,793.616 km
Eccentricity
0.00061
Inclination
97.363°
RAAN
72.7912°
Arg. of periapsis
12.5886°
True anomaly
347.53655°
Mean anomaly
347.5517°
Eccentric anomaly
347.54412°
Mean motion
3.87607 °/min
Orbital period
92.88 mins
BSTAR
0.00042012
Loading maneuver chart data...
Computing Atmospheric mass density...
Loading historical data...
Loading historical data...
Loading historical data...
Loading historical data...
Loading historical data...
Loading historical data...
Loading historical data...

Documentation

Showing up to 5 results
|